[[{"header":{"parameterUnit":"m.s-1","parameterCategory":1,"la1":30.2991,"la2":30.254,"lo1":-89.0895,"lo2":-89.0444,"dy":0.0017,"dx":0.0017,"nx":28,"ny":28,"refTime":"2023-04-23T21:00:00:Z","depth":0,"parameterNumber":2,"parameterNumberName":"U-component_of_WINDS"},"data":[0,0,0,0,0,0,0,0,0,0,0,0,0,0,0,0,0,0,0,0,0,0,0,0,0,0,0,0,0,0,0,0,0,0,0,0,0,0,0,0,0,0,0,0,0,0,0,0,0,0,0,0,0,0,0,0,0,0,-2.9987,-2.9987,0,-2.9975,-2.9975,-2.9975,-2.9847,-2.9844,-2.9841,-2.9838,-2.9828,-2.9831,-2.9834,0,0,0,0,0,0,0,0,0,0,0,0,0,-2.9902,-2.9904,-2.9987,-2.9987,-2.9987,-2.9975,-2.9975,-2.9975,-2.9848,-2.9844,-2.984,-2.9836,-2.9827,-2.9831,-2.9834,0,0,0,0,0,0,0,0,0,0,0,0,0,-2.992,-2.9905,-2.9987,-2.9922,-2.9916,-2.9975,-2.9975,-2.9974,-2.9848,-2.9844,-2.9839,-2.9834,-2.9826,-2.983,-2.9834,-2.9956,0,0,-2.9847,-2.9849,0,0,0,0,0,0,0,0,-2.9919,-2.9923,-2.9932,-2.9926,-2.992,-2.9907,-2.9941,-2.9968,-2.985,-2.9874,-2.9837,-2.9832,-2.9859,-2.986,-2.9868,-2.9956,-2.9955,-2.9847,-2.985,-2.9852,-2.9853,0,0,0,0,0,0,0,-2.9918,-2.9923,-2.9982,-2.9932,-2.9925,-2.9894,-2.9891,-2.9946,-2.9894,-2.9872,-2.9862,-2.9862,-2.9855,-2.9865,-2.9867,-2.9955,-2.9847,-2.9851,-2.9853,-2.9855,-3.0141,-3.0146,0,0,0,0,0,0,-2.9925,-2.9922,-2.9983,-2.9982,-2.9907,-2.9899,-2.9896,-2.9916,-2.9893,-2.9884,-2.9867,-2.9857,-2.986,-2.9862,-2.9866,-3.0008,-2.9851,-2.9855,-2.9858,-3.0136,-3.0143,-3.0148,0,0,0,0,0,0,-2.9924,-2.9932,-2.9983,-2.995,-2.9954,-2.9906,-2.993,-2.9919,-2.9928,-2.9889,-2.9879,-2.9886,-2.9856,-2.986,-2.9934,-3.0006,-2.9857,-2.9861,-3.013,-3.0138,-3.0145,-3.0292,0,0,0,0,0,0,-2.9922,-2.9932,-2.9978,-2.9952,-2.9956,-3.0052,-2.9934,-2.9922,-2.9936,-2.9922,-2.9905,-2.9897,-2.9853,-2.9929,-2.9939,-3.0009,-2.9864,-3.0124,-3.0134,-3.0143,-3.028,-3.0303,-3.0323,0,0,0,0,0,-2.9919,-3.002,-2.9981,-2.9988,-3.0012,-3.0056,-3.0058,-3.0004,-2.9942,-2.9987,-2.9962,-2.9898,-2.9996,-2.9938,-2.9947,-3.002,-3.0119,-3.0131,-3.0142,-3.0271,-3.0299,-3.0323,0,0,0,0,0,0,-3.0057,-3.0015,-2.9971,-3.0066,-3.0065,-3.0034,-3.009,-3.0036,-3.0054,-3.0041,-2.9973,-2.9971,-3.0055,-3.0044,-2.998,-3.0136,-3.0046,-3.006,-3.0141,-3.0167,-3.0188,-3.019,-2.9868,0,0,0,0,0,-3.0098,-3.0137,-3.0098,-3.0186,-3.0187,-3.0139,-3.0156,-3.0114,-3.0111,-3.0111,-3.009,-3.0091,-3.0121,-3.0143,-3.0169,-3.0277,-3.0272,-3.0332,-3.0353,-3.0371,-3.0385,-3.0442,-3.0468,-3.0186,-3.0186,-3.0186,0,0,-3.0184,-3.0166,-3.0195,-3.0213,-3.0207,-3.025,-3.014,-3.0189,-3.022,-3.0118,-3.0187,-3.0172,-3.0168,-3.026,-3.0299,-3.0253,-3.0461,-3.0386,-3.04,-3.0404,-3.0456,-3.0483,-3.0507,-3.0194,-3.0193,-3.0191,0,0,-3.0363,-3.0352,-3.0424,-3.0421,-3.0413,-3.038,-3.0397,-3.0374,-3.036,-3.0427,-3.0352,-3.0387,-3.0442,-3.0442,-3.0449,-3.0626,-3.0569,-3.0636,-3.075,-3.0806,-3.0828,-3.0847,-3.0912,-3.0936,-3.065,-3.065,-3.065,0,-3.0471,-3.0531,-3.0469,-3.0523,-3.0533,-3.0441,-3.0514,-3.0513,-3.0516,-3.0526,-3.0473,-3.0539,-3.0529,-3.062,-3.0664,-3.0672,-3.069,-3.0639,-3.083,-3.0848,-3.0866,-3.0927,-3.0951,-3.0658,-3.0657,-3.0656,-3.0656,0,-3.0665,-3.0708,-3.0767,-3.077,-3.0786,-3.085,-3.0798,-3.0822,-3.0778,-3.0751,-3.0821,-3.0806,-3.0828,-3.0845,-3.0804,-3.0931,-3.0903,-3.0841,-3.075,-3.0902,-3.0958,-3.0981,-3.067,-3.0667,-3.0665,-3.0663,0,0,-3.0933,-3.0899,-3.0922,-3.0922,-3.0906,-3.0938,-3.0997,-3.1017,-3.104,-3.1044,-3.1093,-3.114,-3.1082,-3.1091,-3.1048,-3.1097,-3.124,-3.1029,-3.1028,-3.107,-3.138,-3.1428,-3.1456,-3.12,-3.1204,-3.1207,-3.1381,0,-3.1106,-3.1205,-3.115,-3.1256,-3.1295,-3.1207,-3.1259,-3.1255,-3.1231,-3.1261,-3.1233,-3.1269,-3.1189,-3.1194,-3.1239,-3.1213,-3.1301,-3.1199,-3.1247,-3.1249,-3.1253,-3.1485,-3.1536,-3.1701,-3.1402,-3.1406,-3.1409,0,-3.1323,-3.1335,-3.1445,-3.1421,-3.1435,-3.1483,-3.1496,-3.1525,-3.1519,-3.1498,-3.1507,-3.1451,-3.1508,-3.1416,-3.1494,-3.1426,-3.1441,-3.1432,-3.1437,-3.1441,-3.134,-3.1498,-3.1752,-3.1778,-3.1442,-3.144,-3.1437,0,-3.1509,-3.1553,-3.1624,-3.1627,-3.16,-3.1636,-3.1626,-3.1615,-3.163,-3.1642,-3.1652,-3.167,-3.1681,-3.1697,-3.1649,-3.1586,-3.1734,-3.1638,-3.172,-3.1721,-3.1757,-3.1756,-3.202,-3.1764,-3.1763,-3.1763,-3.1762,0,-3.171,-3.1782,-3.1708,-3.1752,-3.183,-3.1765,-3.1844,-3.1825,-3.1816,-3.1855,-3.178,-3.1819,-3.1751,-3.1784,-3.1746,-3.1818,-3.1823,-3.1808,-3.1798,-3.1816,-3.1819,-3.1828,-3.1816,-3.1769,-3.1768,-3.1767,-3.1765,0,-3.1933,-3.1886,-3.1958,-3.1926,-3.192,-3.1979,-3.1952,-3.1992,-3.1961,-3.2013,-3.2021,-3.1974,-3.2008,-3.196,-3.199,-3.1965,-3.2063,-3.2034,-3.2065,-3.2058,-3.2143,-3.2137,-3.2424,-3.2459,-3.2179,-3.2182,-3.2184,0,-3.2066,-3.2118,-3.2091,-3.2112,-3.2107,-3.2141,-3.2156,-3.2094,-3.2112,-3.2108,-3.215,-3.2177,-3.2196,-3.2255,-3.2225,-3.2247,-3.2219,-3.2318,-3.2222,-3.224,-3.2223,-3.2222,-3.2227,-3.2339,-3.2342,-3.2345,-3.2347,0,-3.2306,-3.228,-3.2303,-3.2319,-3.2339,-3.2348,-3.2352,-3.2374,-3.2308,-3.2333,-3.2367,-3.2382,-3.2411,-3.244,-3.2454,-3.2445,-3.2387,-3.2377,-3.2398,-3.2419,-3.2435,-3.2429,-3.2121,-3.2372,-3.2369,-3.2367,-3.2366,-3.2365,-3.2489,-3.2532,-3.252,-3.2548,-3.2544,-3.255,-3.2586,-3.2559,-3.2586,-3.2604,-3.2565,-3.2609,-3.2601,-3.2613,-3.2611,-3.2644,-3.2601,-3.2631,-3.2639,-3.2647,-3.2662,-3.2428,-3.2646,-3.2646,-3.2645,-3.2644,-3.2644,0,-3.2728,-3.2715,-3.2742,-3.2749,-3.2772,-3.2712,-3.2713,-3.2737,-3.2775,-3.2772,-3.2791,-3.283,-3.2858,-3.2828,-3.285,-3.2883,-3.2857,-3.2891,-3.2889,-3.2888,-3.2698,-3.2679,-3.2912,-3.2912,-3.2912,-3.2912,-3.2912,-3.2912,-3.2855,-3.2924,-3.2896,-3.2963,-3.295,-3.2991,-3.2997,-3.3002,-3.2998,-3.3045,-3.3067,-3.3046,-3.3033,-3.3053,-3.3075,-3.3066,-3.3079,-3.3123,-3.3105,-3.2928,-3.2902,-3.2877,-3.2859,-3.3126,-3.3126,-3.3293,-3.3294,-3.3295]},{"header":{"parameterUnit":"m.s-1","parameterCategory":1,"la1":30.2991,"la2":30.254,"lo1":-89.0895,"lo2":-89.0444,"dy":0.0017,"dx":0.0017,"nx":28,"ny":28,"refTime":"2023-04-23T21:00:00:Z","depth":0,"parameterNumber":3,"parameterNumberName":"V-component_of_WINDS"},"data":[0,0,0,0,0,0,0,0,0,0,0,0,0,0,0,0,0,0,0,0,0,0,0,0,0,0,0,0,0,0,0,0,0,0,0,0,0,0,0,0,0,0,0,0,0,0,0,0,0,0,0,0,0,0,0,0,0,0,-6.2928,-6.2928,0,-6.2946,-6.2946,-6.2946,-6.2835,-6.2832,-6.2829,-6.2826,-6.2843,-6.2846,-6.285,0,0,0,0,0,0,0,0,0,0,0,0,0,-6.2795,-6.2798,-6.2928,-6.2928,-6.2928,-6.2946,-6.2946,-6.2946,-6.2836,-6.2832,-6.2828,-6.2825,-6.2842,-6.2846,-6.285,0,0,0,0,0,0,0,0,0,0,0,0,0,-6.2837,-6.2799,-6.2928,-6.2875,-6.2871,-6.2945,-6.2946,-6.2946,-6.2837,-6.2832,-6.2827,-6.2823,-6.2841,-6.2846,-6.2851,-6.2976,0,0,-6.2866,-6.2868,0,0,0,0,0,0,0,0,-6.2835,-6.2842,-6.2883,-6.2879,-6.2874,-6.2883,-6.2905,-6.2956,-6.2838,-6.285,-6.2826,-6.282,-6.286,-6.2863,-6.2877,-6.2977,-6.2978,-6.2867,-6.287,-6.2872,-6.2873,0,0,0,0,0,0,0,-6.2832,-6.2841,-6.2935,-6.2883,-6.2878,-6.285,-6.2851,-6.2914,-6.2881,-6.2848,-6.284,-6.2844,-6.2857,-6.2872,-6.2877,-6.2978,-6.2866,-6.2871,-6.2874,-6.2876,-6.3179,-6.3184,0,0,0,0,0,0,-6.2837,-6.2839,-6.2934,-6.2935,-6.2843,-6.2856,-6.2857,-6.2885,-6.288,-6.2875,-6.2848,-6.2839,-6.2866,-6.2871,-6.2877,-6.3022,-6.2872,-6.2876,-6.2879,-6.3174,-6.318,-6.3186,0,0,0,0,0,0,-6.2834,-6.2846,-6.2933,-6.2885,-6.2894,-6.2864,-6.2896,-6.2888,-6.2903,-6.288,-6.2873,-6.287,-6.2863,-6.287,-6.2952,-6.3021,-6.2879,-6.2883,-6.3168,-6.3176,-6.3183,-6.3314,0,0,0,0,0,0,-6.2831,-6.2846,-6.2894,-6.2887,-6.2897,-6.3009,-6.29,-6.2892,-6.2913,-6.2901,-6.2899,-6.2894,-6.2859,-6.2945,-6.2957,-6.3025,-6.2887,-6.3162,-6.3172,-6.3181,-6.3303,-6.3325,-6.3344,0,0,0,0,0,-6.2827,-6.293,-6.2897,-6.2909,-6.2957,-6.3014,-6.3019,-6.2978,-6.2919,-6.2966,-6.2951,-6.2894,-6.3012,-6.2954,-6.2967,-6.3038,-6.3157,-6.3169,-6.318,-6.3294,-6.3321,-6.3343,0,0,0,0,0,0,-6.2947,-6.2929,-6.2891,-6.2996,-6.3007,-6.2995,-6.3053,-6.3007,-6.3035,-6.3023,-6.2969,-6.297,-6.3061,-6.3057,-6.2994,-6.3158,-6.3074,-6.3088,-6.3157,-6.3182,-6.3202,-6.32,-6.2892,0,0,0,0,0,-6.2985,-6.3034,-6.3015,-6.3109,-6.3117,-6.3085,-6.3108,-6.3075,-6.3084,-6.3088,-6.3078,-6.3089,-6.3128,-6.3155,-6.3189,-6.3303,-6.33,-6.3357,-6.3378,-6.3394,-6.3407,-6.3465,-6.349,-6.3223,-6.3223,-6.3223,0,0,-6.3066,-6.3062,-6.3096,-6.3133,-6.3138,-6.3188,-6.3089,-6.3147,-6.3183,-6.3096,-6.3173,-6.3167,-6.3175,-6.3273,-6.3315,-6.3273,-6.348,-6.3409,-6.3422,-6.3426,-6.3479,-6.3504,-6.3527,-6.323,-6.3229,-6.3228,0,0,-6.3237,-6.324,-6.3318,-6.3324,-6.3333,-6.331,-6.3329,-6.3323,-6.3316,-6.3392,-6.3327,-6.3369,-6.3438,-6.3446,-6.3459,-6.3633,-6.3581,-6.3646,-6.375,-6.3807,-6.3828,-6.3847,-6.3907,-6.393,-6.3658,-6.3659,-6.3659,0,-6.3336,-6.341,-6.3364,-6.3426,-6.3443,-6.3367,-6.3444,-6.3453,-6.3472,-6.3486,-6.3438,-6.3521,-6.3522,-6.3619,-6.3662,-6.3675,-6.3694,-6.3645,-6.3829,-6.3847,-6.3864,-6.3921,-6.3944,-6.3666,-6.3666,-6.3665,-6.3664,0,-6.353,-6.3582,-6.3644,-6.3664,-6.3688,-6.3758,-6.3722,-6.3752,-6.3717,-6.3699,-6.3777,-6.3774,-6.3806,-6.3827,-6.3794,-6.392,-6.3893,-6.3839,-6.3753,-6.3898,-6.395,-6.3972,-6.3677,-6.3675,-6.3672,-6.367,0,0,-6.3778,-6.3771,-6.3794,-6.3801,-6.3804,-6.3843,-6.3909,-6.394,-6.3966,-6.3982,-6.4035,-6.4094,-6.4043,-6.4058,-6.4024,-6.4075,-6.421,-6.4013,-6.4012,-6.4049,-6.4347,-6.4388,-6.4414,-6.4176,-6.418,-6.4184,-6.4346,0,-6.3944,-6.4056,-6.4016,-6.4129,-6.4176,-6.4103,-6.416,-6.4168,-6.4153,-6.4189,-6.4172,-6.4215,-6.4145,-6.4153,-6.42,-6.4184,-6.4269,-6.4172,-6.4223,-6.4226,-6.4223,-6.4442,-6.4485,-6.4638,-6.4367,-6.437,-6.4373,0,-6.4154,-6.4177,-6.4296,-6.4289,-6.4307,-6.4359,-6.4383,-6.4419,-6.4426,-6.4411,-6.4428,-6.4383,-6.4445,-6.4361,-6.4445,-6.438,-6.4399,-6.4394,-6.4399,-6.4401,-6.4307,-6.4449,-6.4687,-6.4709,-6.4405,-6.4402,-6.44,0,-6.4321,-6.4382,-6.446,-6.4469,-6.4464,-6.4501,-6.4501,-6.4502,-6.4523,-6.4545,-6.4557,-6.4587,-6.4602,-6.4625,-6.4589,-6.4531,-6.4678,-6.4591,-6.4667,-6.4668,-6.47,-6.4698,-6.4943,-6.4715,-6.4715,-6.4714,-6.4714,0,-6.451,-6.4585,-6.4535,-6.4583,-6.4664,-6.4617,-6.4698,-6.469,-6.4692,-6.4736,-6.4675,-6.4718,-6.4668,-6.4706,-6.4678,-6.4751,-6.4759,-6.4748,-6.474,-6.4753,-6.4754,-6.4764,-6.4752,-6.472,-6.4719,-6.4718,-6.4717,0,-6.471,-6.468,-6.476,-6.4748,-6.4747,-6.4807,-6.4796,-6.4839,-6.482,-6.4877,-6.4887,-6.4857,-6.4898,-6.4864,-6.4905,-6.4886,-6.4982,-6.4959,-6.498,-6.4973,-6.5051,-6.5043,-6.5309,-6.5341,-6.5094,-6.5096,-6.5098,0,-6.4832,-6.4888,-6.4882,-6.4907,-6.491,-6.4952,-6.4973,-6.4928,-6.4952,-6.4963,-6.5005,-6.5041,-6.5067,-6.5136,-6.5117,-6.5147,-6.5124,-6.5215,-6.5128,-6.5139,-6.5123,-6.512,-6.5124,-6.5232,-6.5235,-6.5237,-6.5239,0,-6.5052,-6.5034,-6.5066,-6.5094,-6.512,-6.5139,-6.5154,-6.5178,-6.5132,-6.5162,-6.5203,-6.5224,-6.5264,-6.53,-6.5324,-6.5322,-6.5273,-6.5267,-6.5286,-6.5299,-6.5308,-6.5303,-6.5027,-6.5261,-6.5259,-6.5257,-6.5256,-6.5255,-6.5215,-6.5261,-6.5263,-6.5301,-6.5307,-6.5321,-6.5361,-6.5346,-6.538,-6.5409,-6.5381,-6.5431,-6.5434,-6.5461,-6.5465,-6.5503,-6.5465,-6.5492,-6.5499,-6.5506,-6.5517,-6.5304,-6.5507,-6.5506,-6.5506,-6.5505,-6.5505,0,-6.543,-6.5428,-6.5463,-6.5485,-6.5514,-6.5466,-6.5479,-6.5506,-6.5551,-6.5558,-6.5585,-6.5632,-6.5666,-6.565,-6.568,-6.5713,-6.5691,-6.5722,-6.5719,-6.5719,-6.555,-6.553,-6.5739,-6.5739,-6.5739,-6.5739,-6.5739,-6.5739,-6.5546,-6.5619,-6.5601,-6.5677,-6.5673,-6.5721,-6.5733,-6.5746,-6.5751,-6.5806,-6.5834,-6.5823,-6.5821,-6.585,-6.5879,-6.5873,-6.5886,-6.5925,-6.5912,-6.5754,-6.5731,-6.5709,-6.5689,-6.5929,-6.5929,-6.6077,-6.6078,-6.6079]}]]